RH
92 94 92 90 90 89 89 90 90 90 89 88 89 90 90 88 85 84 83 82 79 75 73 74 78 77 77 76 78 80 81 84 84 82 76 70 68 70 76 83 78 72 86
90 90 93 92 90 90 90 90 90 90 88 89 89 91 90 87 84 82 83 81 78 72 73 76 79 78 78 78 78 79 81 85 84 82 79 74 72 72 76 86 83 80 85
84 87 89 94 93 93 92 90 89 88 88 88 88 89 87 83 81 80 79 80 76 72 72 75 78 79 78 79 79 79 80 84 83 82 80 72 79 73 74 81 85 81 83
75 85 89 94 94 94 94 93 91 88 87 89 89 87 85 81 80 80 80 83 79 76 75 77 78 82 83 84 83 80 79 82 84 84 77 62 67 79 79 77 79 79 80
80 83 86 92 92 92 93 93 93 93 93 90 88 86 85 82 84 82 81 84 79 77 78 77 76 77 80 85 85 83 83 84 86 79 77 71 86 70 75 74 73 80 80
88 92 88 89 89 88 89 89 90 91 93 92 92 89 85 82 80 80 83 82 80 80 79 79 78 80 86 89 88 86 88 88 88 86 74 78 81 76 79 75 82 80 82
85 89 86 89 88 86 84 84 89 91 92 91 90 89 85 84 84 86 87 86 84 82 82 83 85 87 87 87 83 84 85 86 83 86 79 90 80 62 69 70 78 80 81
70 81 78 86 87 87 87 87 88 89 91 91 91 90 87 87 88 86 85 83 83 83 83 83 83 83 83 82 82 82 82 83 73 82 83 92 83 73 70 69 80 80 81
59 74 84 83 83 88 88 88 88 88 88 87 87 88 87 89 90 88 86 82 81 81 80 79 80 82 82 83 83 83 83 85 88 78 63 88 82 75 73 77 77 81 82
52 60 73 82 83 90 91 88 87 86 86 83 84 84 84 86 87 88 85 84 81 79 77 75 79 80 82 83 86 87 86 85 76 70 84 92 78 70 69 72 73 75 78
46 55 66 70 77 83 87 82 87 86 85 84 84 84 86 85 83 86 84 82 80 80 79 78 78 80 81 81 80 82 83 87 74 66 90 83 74 66 68 70 71 73 75
50 54 56 60 75 75 52 82 88 80 87 87 84 87 85 86 86 74 81 81 80 81 82 81 80 80 82 82 75 82 90 79 66 59 85 81 72 64 64 67 72 74 75
46 54 60 55 56 59 60 80 86 84 90 89 80 70 70 73 79 84 92 88 94 87 89 85 87 88 84 81 72 74 71 63 64 59 73 80 69 57 56 58 63 66 71
50 55 62 62 58 63 63 63 66 67 73 79 75 69 73 83 73 76 77 75 80 85 91 87 86 76 79 69 69 70 64 60 60 60 76 74 69 54 51 53 58 62 66
47 55 63 64 67 61 60 66 63 68 70 69 72 69 70 78 74 76 72 72 69 69 68 67 66 63 66 63 61 64 61 56 56 57 67 72 69 62 50 48 52 57 63
41 57 63 65 76 68 63 60 66 67 67 70 74 68 65 76 75 78 72 74 71 71 72 72 69 70 70 68 67 62 60 57 52 53 57 68 71 68 64 53 53 55 59
45 65 71 84 77 79 66 56 60 70 54 66 64 64 64 64 65 70 75 77 76 76 74 73 72 76 74 67 69 68 66 64 60 53 52 61 68 74 73 72 62 58 61
56 59 73 77 91 96 76 56 55 58 60 56 64 68 61 61 62 70 71 73 76 76 75 75 78 78 78 78 75 72 70 65 61 56 50 56 61 55 73 76 73 72 66
50 52 66 86 92 86 80 75 65 55 52 55 59 65 60 62 66 71 72 72 73 78 79 78 76 83 83 78 69 68 72 72 70 53 55 54 60 60 58 70 76 80 75
55 60 55 57 72 76 74 64 64 61 60 60 61 61 56 63 57 60 63 67 70 71 74 77 77 72 80 79 60 60 78 78 75 76 67 51 56 57 58 60 69 70 79
48 44 49 54 58 50 54 55 57 59 57 57 57 50 48 56 58 63 67 63 65 68 73 72 75 78 73 79 86 73 81 75 74 79 76 73 72 57 55 59 62 66 66
54 50 50 49 51 53 56 59 59 61 58 58 62 61 62 61 59 55 69 71 71 74 74 77 77 78 84 82 89 86 77 71 72 69 75 77 87 85 76 64 60 64 60
59 52 49 51 52 55 55 58 59 61 62 63 60 58 60 61 62 60 61 68 70 77 78 78 88 93 97 92 88 93 97 95 84 73 74 88 94 91 88 91 85 83 76
63 59 51 48 49 52 54 61 64 70 68 70 68 65 61 62 58 55 61 66 74 79 78 89 82 91 89 94 90 75 83 86 95 80 82 82 81 81 92 92 96 90 93
59 57 52 50 51 52 59 62 69 64 65 64 67 70 68 65 61 58 57 64 70 81 91 88 87 77 78 78 85 96 94 92 96 98 91 93 84 81 88 92 94 94 88
62 59 57 54 51 56 56 57 61 64 68 71 72 74 71 68 67 64 57 75 85 88 88 83 81 79 82 83 90 94 95 83 87 92 90 95 94 91 79 91 90 92 88
Wind_Speed
5 6 12 14 13 13 13 13 13 13 13 13 13 15 15 15 14 13 13 14 14 14 14 13 12 11 10 9 9 8 9 9 9 10 7 7 5 7 10 13 10 10 12
11 7 12 14 13 13 13 14 14 14 14 14 14 15 14 13 12 12 12 12 11 11 10 10 9 8 8 8 8 9 9 8 9 8 9 10 3 7 10 10 8 7 10
12 10 13 13 14 13 14 14 14 14 14 14 14 13 13 12 12 12 11 11 10 10 9 9 8 8 7 8 8 8 9 9 8 9 9 5 4 9 13 6 5 4 8
14 10 11 14 14 14 14 14 13 13 13 13 12 13 12 12 12 11 11 9 9 10 10 9 8 9 9 8 8 8 7 8 9 10 4 4 4 12 4 8 3 4 3
13 10 11 13 14 14 14 14 14 14 13 12 12 12 11 11 11 11 10 8 9 9 9 9 9 8 8 7 7 7 9 9 10 9 6 3 6 10 5 10 5 4 5
9 8 11 13 14 14 14 15 14 13 13 12 12 13 12 11 10 10 10 8 8 8 7 7 7 8 8 7 7 7 8 9 10 6 5 4 6 12 9 3 3 3 7
9 7 9 12 14 14 15 15 13 13 12 12 12 11 11 12 11 11 10 10 9 9 8 7 7 6 6 6 7 7 7 8 5 6 5 4 4 6 4 1 2 4 1
11 8 8 12 14 14 13 12 11 11 11 10 11 10 10 11 11 11 10 8 7 7 6 5 4 4 5 6 7 9 10 9 5 4 4 3 6 1 4 1 2 3 2
11 9 7 8 11 13 13 12 10 10 10 10 10 9 8 8 9 9 9 8 7 5 3 1 3 5 6 7 9 10 12 11 6 1 6 2 7 8 5 5 4 4 4
11 11 9 7 7 6 7 12 11 11 9 8 10 10 9 9 9 11 9 7 7 7 4 2 4 7 7 8 10 12 13 13 7 5 2 2 5 7 6 4 2 1 3
7 8 8 8 7 6 6 8 10 13 12 10 9 9 7 5 6 8 7 8 7 6 5 6 7 8 8 8 10 12 11 4 6 2 2 6 4 2 3 3 1 3 3
7 10 9 9 9 7 7 6 6 6 5 5 5 6 5 6 6 6 6 9 9 6 7 9 10 9 7 4 4 7 3 5 4 3 3 7 5 4 3 3 4 6 7
11 6 9 8 6 7 6 4 3 3 3 3 7 5 4 3 2 2 3 3 3 6 4 6 5 4 5 5 5 3 4 4 3 3 3 5 6 5 4 4 6 8 9
8 10 9 8 8 5 3 4 5 5 4 4 3 5 4 3 2 3 3 3 3 3 5 4 3 5 5 6 6 6 5 3 3 1 4 9 9 7 6 4 6 9 10
9 13 12 12 9 6 6 4 3 3 4 5 5 5 4 3 3 1 1 1 2 3 1 1 2 4 4 6 5 5 6 6 6 3 3 11 12 10 7 6 8 10 11
11 16 15 10 7 6 5 4 3 4 3 4 4 5 6 4 2 1 2 3 4 3 3 3 4 4 5 5 6 7 7 6 7 6 4 5 12 10 9 9 9 10 11
6 13 3 9 7 2 5 6 3 4 4 4 4 6 7 5 4 3 2 4 4 4 5 4 5 4 5 4 6 6 6 7 6 7 6 5 6 13 12 10 12 12 12
14 13 8 9 13 14 6 4 3 3 2 2 3 3 4 4 4 3 2 3 4 4 4 4 5 5 5 5 5 5 5 5 7 9 8 5 5 6 11 14 14 14 14
9 7 8 9 9 9 5 3 2 5 2 1 2 4 5 6 6 4 2 3 5 4 5 4 4 3 4 6 7 6 5 5 6 5 7 8 7 7 6 12 16 14 14
15 12 11 8 6 4 3 4 5 5 4 4 3 4 5 4 4 3 3 4 4 4 4 5 4 5 4 6 8 9 6 5 5 6 6 7 8 9 9 9 9 10 16
11 13 11 14 10 10 6 4 3 2 2 2 4 4 4 6 7 6 4 4 4 4 3 4 4 5 6 5 5 7 4 6 6 5 5 5 6 8 8 10 8 6 8
9 9 10 10 9 7 4 3 4 3 3 4 4 7 7 7 7 6 6 5 6 4 5 5 4 4 2 4 4 5 7 5 4 6 4 5 6 7 9 9 5 5 5
9 8 8 8 7 6 7 4 5 5 4 5 5 3 4 7 6 7 7 6 6 4 3 4 4 7 3 4 7 4 5 4 9 4 6 5 7 6 6 8 10 9 6
6 7 7 5 5 5 6 5 5 2 2 2 1 3 6 9 10 10 8 6 5 4 5 2 4 4 4 3 2 5 1 4 4 9 3 4 6 7 7 5 4 6 6
5 4 4 7 5 3 4 5 4 2 1 2 4 7 7 7 7 8 9 9 7 4 3 4 3 3 2 2 1 1 2 4 1 3 9 3 4 6 4 4 3 3 5
3 4 4 5 5 7 6 6 6 6 4 5 5 4 3 3 4 6 8 6 5 5 5 4 4 4 3 3 3 2 1 3 5 3 5 3 3 4 5 3 4 2 2
Wind_Direction
90 95 96 99 91 88 87 82 76 72 75 82 86 91 92 91 83 72 67 61 56 57 53 49 54 51 44 36 42 28 25 17 14 5 19 15 37 56 59 46 98 114 116
111 109 96 95 93 90 89 86 81 78 82 95 97 100 99 94 90 82 76 70 68 62 60 59 58 61 53 39 27 19 20 12 1 353 350 346 28 46 47 50 70 116 131
113 101 93 93 89 89 91 93 92 93 95 102 101 102 97 91 82 76 65 58 52 46 43 45 44 45 44 38 25 12 5 356 342 341 351 308 98 63 21 39 68 85 130
106 96 99 97 98 95 91 90 90 91 90 92 96 93 89 84 76 66 61 55 53 48 46 41 39 29 26 24 16 9 354 340 343 341 356 316 133 87 43 334 70 124 121
99 101 103 100 95 91 90 88 85 82 81 88 88 90 92 83 80 79 73 63 65 60 49 36 27 23 22 18 9 357 347 341 339 332 323 12 110 117 157 176 243 195 117
104 103 101 101 103 102 96 92 89 87 84 81 84 87 87 88 82 80 77 69 66 63 52 46 32 23 21 16 7 1 345 338 331 322 324 126 151 167 167 207 176 195 143
103 103 106 106 101 99 96 94 95 95 99 98 98 94 95 90 85 79 74 68 62 57 48 45 37 26 15 7 354 347 334 324 326 341 303 129 202 165 112 167 239 257 158
127 132 118 114 109 107 107 104 102 103 97 95 93 98 100 105 100 98 92 87 80 74 62 51 33 6 352 342 329 322 314 315 332 340 40 144 149 37 44 358 3 317 333
140 134 143 132 128 125 120 117 118 112 117 120 119 116 125 114 119 126 129 135 130 122 121 66 345 317 310 314 312 310 305 315 320 16 288 170 133 136 116 86 68 19 310
149 150 148 134 137 132 143 139 136 133 137 151 141 147 152 147 162 158 159 155 159 175 174 207 265 274 292 306 308 305 306 318 314 323 91 189 170 144 130 119 95 331 324
155 137 145 158 149 153 155 152 156 160 161 181 167 180 166 168 185 179 183 176 198 201 204 225 247 270 287 292 286 278 296 301 303 321 180 207 207 163 153 160 223 273 276
141 144 144 153 164 163 171 161 164 179 183 179 180 188 193 197 195 187 179 190 218 215 225 244 248 256 269 261 270 272 257 275 296 321 225 200 211 223 245 277 287 285 283
169 144 143 133 125 162 143 176 174 180 201 188 197 150 153 103 88 132 151 215 239 243 242 244 255 250 249 254 248 225 244 274 301 332 263 239 238 226 219 240 276 283 285
160 152 143 142 143 120 79 116 155 151 164 154 149 126 94 95 95 78 152 195 210 230 231 252 243 244 242 263 275 271 262 255 270 250 215 215 230 239 241 244 259 265 266
150 162 161 167 157 148 127 127 115 102 139 145 146 116 110 102 97 101 312 302 298 322 276 288 289 298 291 289 280 253 252 247 248 245 221 224 221 222 236 249 260 265 266
166 169 175 142 103 151 132 143 151 137 179 115 142 143 131 125 145 55 346 332 315 326 316 325 302 290 275 273 271 264 251 237 234 229 219 220 227 224 226 237 245 255 260
115 109 152 110 78 325 185 149 151 171 152 134 166 156 154 143 132 83 4 343 321 323 324 328 320 311 298 283 268 266 262 259 242 232 226 210 209 218 221 220 234 241 246
123 146 160 105 106 264 241 131 124 134 109 126 181 176 148 112 99 81 48 330 317 326 318 315 301 295 289 285 285 279 273 269 255 246 236 214 210 208 218 215 222 224 227
106 101 75 104 154 201 143 98 106 125 120 115 108 97 103 83 85 88 45 331 337 335 334 327 325 326 317 313 302 290 279 277 272 264 249 247 216 209 207 216 215 220 226
72 72 76 88 91 68 77 50 36 33 13 25 75 88 73 97 98 62 11 8 6 355 345 350 333 327 308 296 301 297 288 275 273 271 253 236 233 218 210 202 207 214 212
54 68 62 57 35 42 28 48 42 44 345 34 71 80 47 45 29 25 18 348 331 343 316 319 317 340 329 322 317 315 300 294 293 285 279 276 264 259 237 208 199 204 207
51 61 60 61 53 41 24 17 46 9 344 34 25 34 46 32 14 2 357 347 357 350 340 346 337 317 298 4 325 299 306 307 324 322 338 3 4 6 359 345 281 267 213
47 53 64 74 73 56 47 30 16 18 26 17 13 30 15 28 31 27 18 18 3 6 343 322 16 49 7 5 33 24 339 330 335 292 338 29 33 32 21 8 6 9 27
54 52 46 88 113 94 76 64 67 86 29 310 329 2 23 21 21 16 13 3 0 349 334 76 84 102 107 43 3 18 139 280 303 308 345 2 6 19 6 3 352 355 342
102 87 32 34 58 75 103 119 119 121 215 344 21 43 26 14 12 6 0 348 325 339 54 92 66 73 89 78 36 4 352 324 42 307 306 331 345 342 323 325 336 343 9
167 129 90 70 34 49 35 24 31 32 28 52 50 48 20 2 359 0 336 346 29 34 49 35 28 46 27 59 23 332 195 302 305 308 304 311 287 277 298 285 295 301 323